This is the latest recevied weather packets stored in our database for station/object UIBB. If no packets are shown the sender has not sent any weather packets the latest 10 day(s).
| Time | Temp. | Humidity | Pressure | Rain* | Wind** | Luminosity | Snow |
|---|---|---|---|---|---|---|---|
| 1788355426 | 5.56° C | 86% | 1017 hPa | - | - | - | - |
| 1788354823 | 5.56° C | 86% | 1017 hPa | - | - | - | - |
| 1788354228 | 7.78° C | 75% | 1017 hPa | - | - | - | - |
| 1788353629 | 7.78° C | 75% | 1017 hPa | - | - | - | - |
| 1788353025 | 7.78° C | 75% | 1017 hPa | - | - | - | - |
| 1788352425 | 10.56° C | 53% | 1017 hPa | - | - | - | - |
| 1788351825 | 10.56° C | 53% | 1017 hPa | - | - | - | - |
| 1788351226 | 10.56° C | 53% | 1017 hPa | - | - | - | - |
| 1788350627 | 11.67° C | 54% | 1017 hPa | - | - | - | - |
| 1788350025 | 11.67° C | 54% | 1017 hPa | - | - | - | - |
| 1788349424 | 11.67° C | 54% | 1017 hPa | - | - | - | - |
| 1788348825 | 11.67° C | 58% | 1017 hPa | - | - | - | - |
| 1788348224 | 11.67° C | 58% | 1017 hPa | - | - | - | - |
| 1788347625 | 11.67° C | 58% | 1017 hPa | - | - | - | - |
| 1788347026 | 12.78° C | 54% | 1017 hPa | - | - | - | - |
| 1788346425 | 12.78° C | 54% | 1017 hPa | - | - | - | - |
| 1788345823 | 12.78° C | 54% | 1017 hPa | - | - | - | - |
| 1788345226 | 12.78° C | 50% | 1018 hPa | - | - | - | - |
| 1788344624 | 12.78° C | 50% | 1018 hPa | - | - | - | - |
| 1788344022 | 12.78° C | 50% | 1018 hPa | - | - | - | - |
| 1788343424 | 13.89° C | 50% | 1018 hPa | - | - | - | - |
| 1788342826 | 13.89° C | 50% | 1018 hPa | - | - | - | - |
| 1788342226 | 13.89° C | 50% | 1018 hPa | - | - | - | - |
| 1788341624 | 12.78° C | 47% | 1018 hPa | - | - | - | - |
| 1788341023 | 12.78° C | 47% | 1018 hPa | - | - | - | - |
* Rain since midnight (hover to see other rain measurements)
** Current wind speed in m/s (hover to see current wind gust speed)